CAPE
0 0 0 0 0 0 0 0 0 0 0 0 0 0 0 0 0 0 0 0 0 3 541 1087 621 379 432 458 476 568 728 558 522 633 691 699 701 721 642 427 506 758 601 590 509 375 368 251 159
0 0 0 0 0 0 0 0 0 0 0 0 0 0 0 0 0 0 0 0 3 86 716 1092 589 546 482 514 438 366 462 538 558 535 755 737 718 697 457 450 623 616 530 404 234 211 131 85 70
0 7 0 0 0 0 0 0 0 0 0 0 0 0 0 0 0 0 0 0 85 171 825 1029 612 631 691 602 420 341 288 474 539 534 715 774 759 612 454 440 558 384 179 123 84 43 36 21 28
0 41 0 0 0 0 0 0 0 0 0 0 0 0 0 0 0 0 7 51 200 343 977 967 669 663 652 520 387 370 304 386 391 667 729 784 789 646 438 405 418 196 81 62 64 39 11 12 17
0 19 0 0 0 0 0 0 0 0 0 0 0 0 0 0 0 5 60 123 224 536 833 976 754 674 538 331 298 398 365 367 374 712 768 695 600 546 440 394 256 136 81 49 56 30 15 15 20
0 11 0 0 0 0 0 0 0 0 0 0 0 0 0 0 0 33 146 249 383 600 732 965 757 721 592 477 319 361 345 557 621 742 783 723 550 497 426 341 186 127 84 102 63 40 40 28 3
0 0 0 4 0 0 0 0 0 0 0 0 0 0 0 0 14 177 243 328 483 620 786 776 823 742 550 502 255 328 341 595 724 757 675 601 482 395 338 249 145 128 163 180 86 47 12 6 0
0 0 0 3 3 2 0 0 0 0 0 0 0 0 0 0 156 336 270 285 476 556 649 646 845 815 756 533 323 303 346 539 495 589 446 399 386 314 251 198 199 173 209 142 72 23 1 1 0
0 0 0 0 0 0 0 0 0 0 0 0 0 0 0 0 319 309 316 293 320 410 513 579 712 813 733 510 394 321 354 467 467 422 247 273 390 338 267 217 159 154 159 102 20 0 0 0 0
0 0 0 0 1 0 0 0 0 0 0 0 0 0 0 0 1 254 383 323 266 365 529 586 559 595 564 401 454 566 428 514 444 285 218 274 290 244 208 143 109 88 74 31 3 1 0 0 0
0 0 0 0 0 0 0 0 0 0 0 0 0 0 0 0 0 3 282 406 335 391 583 490 409 612 494 363 545 544 459 330 248 252 163 228 207 153 125 109 90 37 18 1 1 0 0 0 0
0 0 0 0 0 0 0 0 0 0 0 0 0 0 0 0 0 0 0 344 434 449 529 479 443 524 459 361 319 434 316 199 217 180 177 222 175 135 95 61 9 0 0 0 0 0 0 0 1
0 0 0 0 0 0 0 0 0 0 0 0 0 0 0 0 0 0 0 0 351 459 485 598 511 408 389 301 286 348 239 203 170 158 169 193 126 118 59 10 0 0 0 0 0 0 0 0 0
0 0 0 0 0 0 0 0 0 0 0 0 0 0 0 0 0 0 0 0 67 359 428 654 488 336 281 241 222 273 203 173 176 155 150 142 123 70 34 0 0 0 0 2 2 0 0 0 0
0 0 0 0 0 0 0 0 0 0 0 0 0 0 0 0 0 0 0 0 0 7 312 491 511 347 299 280 219 176 213 178 162 170 149 125 85 45 12 0 0 0 0 0 1 0 0 0 0
0 0 0 0 0 0 8 0 0 0 0 0 0 0 0 0 0 0 0 0 0 0 96 445 376 338 251 230 312 186 181 166 145 137 161 118 65 21 0 0 0 0 0 1 3 1 0 0 0
0 0 0 0 0 0 3 0 0 0 0 0 4 3 0 0 0 0 0 0 0 1 0 138 157 267 267 251 235 172 152 149 142 126 126 98 44 5 0 2 0 0 1 1 3 1 0 0 0
0 0 0 0 0 0 0 0 1 3 6 4 1 0 0 0 0 0 0 0 1 3 2 24 128 183 181 230 223 131 132 155 135 115 103 68 18 0 1 2 0 0 2 2 3 0 3 1 0
1 0 0 0 0 0 0 0 0 1 1 3 6 1 5 0 0 0 0 0 4 1 3 0 2 131 161 241 186 135 164 162 118 93 68 40 1 2 2 3 4 1 0 0 1 1 0 2 3
0 0 0 0 0 0 0 0 0 0 0 2 5 7 2 5 0 0 0 0 2 2 6 3 1 0 99 233 224 141 167 153 144 92 49 37 1 1 0 0 2 3 3 3 1 0 3 2 2
0 0 0 1 0 0 0 0 0 0 0 1 1 0 1 5 3 2 0 0 2 6 7 8 3 1 0 59 69 76 135 129 95 71 54 41 0 1 0 0 1 1 1 2 1 0 0 0 2
0 0 0 0 0 0 0 0 0 0 0 0 1 1 0 3 5 2 1 0 5 6 5 4 4 2 1 6 74 59 127 76 55 49 73 23 1 1 0 0 0 0 1 1 2 1 0 2 0
0 0 0 0 0 0 0 0 0 0 0 0 0 0 0 0 2 6 2 1 0 1 7 4 4 3 1 0 33 94 96 94 89 71 82 25 2 2 2 1 2 1 0 1 2 2 0 0 0
0 0 0 0 0 0 0 0 0 0 0 0 0 0 0 0 0 1 1 1 0 0 4 1 5 6 2 1 0 39 57 91 118 103 53 49 13 3 2 1 2 2 1 2 1 0 0 0 0
0 0 0 0 0 0 0 0 0 0 0 0 0 0 0 0 0 0 0 0 2 1 1 2 3 6 4 4 3 2 6 34 58 71 81 40 11 2 2 2 2 2 1 2 1 1 1 0 0
0 0 0 0 0 0 0 0 0 0 0 0 0 0 0 0 0 0 0 0 0 1 3 1 0 7 2 7 4 4 2 2 67 42 72 66 37 6 2 2 2 2 1 2 1 3 1 1 0
0 0 0 0 0 0 0 0 0 0 0 0 0 0 0 0 0 0 0 0 0 0 1 4 0 0 5 2 0 5 5 3 1 0 104 133 94 36 10 3 2 2 2 2 2 3 3 2 1
0 0 0 0 0 0 0 0 0 0 0 0 0 0 0 0 0 0 0 0 0 0 0 1 1 0 2 2 0 0 2 2 4 3 0 31 108 86 21 2 2 2 2 2 3 2 2 2 2
0 0 0 0 0 0 0 0 0 0 0 0 0 0 0 0 0 0 0 0 0 0 1 0 0 0 0 0 0 0 0 0 1 2 2 4 0 1 37 5 3 4 2 2 2 2 2 3 2
0 0 0 0 0 0 0 0 0 0 0 0 0 0 0 0 0 0 0 0 2 1 0 0 0 0 0 0 0 0 0 0 0 0 0 0 0 0 0 1 14 21 12 5 2 2 3 2 3
CIN
-0 -0 -0 -0 -0 -0 -0 -0 -0 -0 -0 -0 -0 -0 -0 -0 -0 -0 -0 -0 -0 -26 -193 -87 -110 -122 -92 -75 -55 -24 -2 -5 -2 -0 -0 -0 -0 -0 -0 -3 -1 -0 -1 -0 -0 -0 -0 -1 -2
-0 -0 -0 -0 -0 -0 -0 -0 -0 -0 -0 -0 -0 -0 -0 -0 -0 -0 -0 -0 -76 -322 -152 -93 -122 -109 -94 -66 -64 -54 -30 -11 -9 -5 -0 -0 -0 -0 -3 -1 -0 -0 -1 -1 -4 -2 -1 -4 -12
-0 -9 -0 -0 -0 -0 -0 -0 -0 -0 -0 -0 -0 -0 -0 -0 -0 -0 -0 -0 -364 -303 -157 -107 -135 -100 -68 -61 -65 -62 -58 -17 -10 -8 -0 -0 -0 -0 -2 -1 -0 -2 -26 -39 -30 -23 -41 -84 -75
-0 -2 -0 -0 -0 -0 -0 -0 -0 -0 -0 -0 -0 -0 -0 -0 -0 -0 -407 -423 -319 -254 -127 -109 -128 -98 -76 -68 -72 -63 -52 -33 -28 -1 -1 -1 -0 -0 -2 -1 -1 -31 -26 -26 -27 -37 -72 -95 -67
-0 -2 -0 -0 -0 -0 -0 -0 -0 -0 -0 -0 -0 -0 -0 -0 -0 -209 -383 -379 -328 -206 -131 -92 -97 -85 -83 -93 -84 -52 -45 -31 -26 -2 -1 -1 -0 -1 -6 -4 -21 -33 -23 -45 -28 -44 -53 -59 -60
-0 -1 -0 -0 -0 -0 -0 -0 -0 -0 -0 -0 -0 -0 -0 -0 -0 -319 -337 -291 -247 -183 -143 -86 -78 -76 -62 -70 -78 -59 -45 -11 -4 -2 -1 -1 -1 -1 -4 -15 -51 -19 -17 -7 -15 -30 -29 -34 -15
-0 -0 -0 -0 -0 -0 -0 -0 -0 -0 -0 -0 -0 -0 -0 -0 -223 -277 -260 -225 -175 -120 -93 -74 -57 -47 -59 -48 -69 -56 -47 -6 -2 -1 -2 -1 -1 -4 -10 -29 -18 -7 -49 -20 -10 -28 -78 -53 -0
-0 -0 -1 -1 -0 -2 -0 -0 -0 -0 -0 -0 -0 -0 -0 -0 -161 -145 -163 -147 -107 -84 -53 -63 -34 -26 -20 -27 -43 -41 -42 -8 -4 -2 -5 -4 -4 -16 -31 -4 -3 -4 -54 -1 -24 -70 -0 -0 -0
-0 -0 -0 -0 -0 -0 -0 -0 -0 -0 -0 -0 -0 -0 -0 -0 -22 -58 -85 -82 -87 -64 -44 -43 -31 -19 -15 -21 -27 -27 -19 -7 -5 -4 -18 -29 -10 -34 -0 -0 -5 -5 -1 -7 -69 -0 -0 -0 -0
-0 -0 -0 -0 -0 -0 -0 -0 -0 -0 -0 -0 -0 -0 -0 -0 -7 -11 -30 -75 -84 -67 -34 -43 -38 -30 -20 -30 -20 -4 -7 -1 -0 -19 -20 -14 -0 -0 -0 -12 -12 -33 -36 -91 -0 -0 -0 -0 -0
-0 -0 -0 -0 -0 -0 -0 -0 -0 -0 -0 -0 -0 -0 -0 -0 -0 -3 -3 -46 -152 -129 -44 -47 -46 -16 -28 -37 -16 -4 -5 -8 -16 -8 -31 -4 -18 -36 -52 -54 -49 -118 -159 -19 -0 -0 -0 -0 -0
-0 -0 -0 -0 -0 -0 -0 -0 -0 -0 -0 -0 -0 -0 -0 -0 -0 -0 -0 -5 -33 -51 -56 -30 -23 -22 -34 -14 -23 -13 -25 -43 -25 -30 -31 -30 -44 -64 -95 -140 -224 -0 -0 -0 -0 -0 -0 -0 -0
-0 -0 -0 -0 -0 -0 -0 -0 -0 -0 -0 -0 -0 -0 -0 -0 -0 -0 -0 -0 -13 -26 -32 -11 -21 -2 -7 -10 -17 -22 -49 -55 -74 -64 -55 -62 -100 -101 -172 -290 -0 -0 -0 -0 -0 -0 -0 -0 -0
-0 -0 -0 -0 -0 -0 -0 -0 -0 -0 -0 -0 -0 -0 -0 -0 -0 -0 -0 -0 -8 -30 -23 -1 -23 -21 -30 -24 -28 -41 -82 -67 -61 -64 -66 -94 -114 -183 -224 -0 -0 -0 -0 -0 -0 -0 -0 -0 -0
-0 -0 -0 -0 -0 -0 -0 -0 -0 -0 -0 -0 -0 -0 -0 -0 -0 -0 -0 -0 -0 -49 -43 -10 -4 -32 -17 -7 -24 -50 -66 -70 -55 -49 -62 -99 -166 -226 -278 -0 -0 -0 -0 -0 -0 -0 -0 -0 -0
-0 -0 -0 -0 -0 -0 -5 -0 -0 -0 -0 -0 -0 -0 -0 -0 -0 -0 -0 -0 -0 -0 -15 -28 -35 -31 -27 -14 -3 -42 -52 -68 -83 -92 -62 -110 -190 -272 -0 -0 -0 -0 -0 -0 -0 -0 -0 -0 -0
-0 -0 -0 -0 -0 -0 -3 -0 -0 -0 -0 -0 -10 -2 -0 -0 -0 -0 -0 -0 -0 -0 -0 -15 -33 -44 -37 -16 -17 -44 -74 -70 -82 -102 -101 -122 -194 -182 -0 -0 -0 -0 -0 -0 -0 -0 -0 -0 -0
-0 -0 -0 -0 -0 -0 -0 -0 -0 -0 -1 -3 -0 -0 -0 -0 -0 -0 -0 -0 -0 -0 -0 -97 -20 -34 -48 -21 -12 -37 -49 -44 -72 -98 -117 -148 -211 -0 -0 -0 -0 -0 -0 -0 -0 -0 -0 -0 -0
-0 -0 -0 -0 -0 -0 -0 -0 -0 -0 -0 -0 -0 -0 -0 -0 -0 -0 -0 -0 -0 -0 -0 -0 -16 -13 -25 -4 -4 -21 -23 -30 -45 -80 -122 -152 -0 -0 -0 -0 -0 -0 -0 -0 -0 -0 -0 -0 -0
-0 -0 -0 -0 -0 -0 -0 -0 -0 -0 -0 -0 -0 -0 -0 -0 -0 -0 -0 -0 -0 -0 -0 -0 -0 -0 -12 -2 -0 -15 -37 -25 -50 -82 -126 -154 -33 -0 -0 -0 -0 -0 -0 -0 -0 -0 -0 -0 -0
-0 -0 -0 -0 -0 -0 -0 -0 -0 -0 -0 -0 -0 -0 -0 -0 -0 -0 -0 -0 -0 -0 -0 -0 -0 -0 -0 -20 -16 -36 -37 -25 -31 -42 -87 -133 -0 -0 -0 -0 -0 -0 -0 -0 -0 -0 -0 -0 -0
-0 -0 -0 -0 -0 -0 -0 -0 -0 -0 -0 -0 -0 -0 -0 -0 -0 -0 -0 -0 -0 -0 -0 -0 -0 -0 -0 -9 -7 -8 -3 -12 -7 -33 -84 -141 -0 -0 -0 -0 -0 -0 -0 -0 -0 -0 -0 -0 -0
-0 -0 -0 -0 -0 -0 -0 -0 -0 -0 -0 -0 -0 -0 -0 -0 -0 -0 -0 -0 -0 -0 -0 -0 -0 -0 -0 -0 -25 -7 -0 -10 -22 -37 -23 -95 -5 -0 -0 -0 -0 -0 -0 -0 -0 -0 -0 -0 -0
-0 -0 -0 -0 -0 -0 -0 -0 -0 -0 -0 -0 -0 -0 -0 -0 -0 -0 -0 -0 -0 -0 -0 -0 -0 -0 -0 -0 -0 -20 -10 -14 -6 -19 -16 -37 -98 -0 -0 -0 -0 -0 -0 -0 -0 -0 -0 -0 -0
-0 -0 -0 -0 -0 -0 -0 -0 -0 -0 -0 -0 -0 -0 -0 -0 -0 -0 -0 -0 -0 -0 -0 -0 -0 -0 -0 -0 -0 -0 -45 -12 -10 -17 -19 -12 -22 -0 -0 -0 -0 -0 -0 -0 -0 -0 -0 -0 -0
-0 -0 -0 -0 -0 -0 -0 -0 -0 -0 -0 -0 -0 -0 -0 -0 -0 -0 -0 -0 -0 -0 -0 -0 -0 -0 -0 -0 -0 -0 -0 -9 -23 -18 -10 -15 -14 -36 -0 -0 -0 -0 -0 -0 -0 -0 -0 -0 -0
-0 -0 -0 -0 -0 -0 -0 -0 -0 -0 -0 -0 -0 -0 -0 -0 -0 -0 -0 -0 -0 -0 -0 -0 -0 -0 -0 -0 -0 -0 -0 -0 -0 -0 -8 -3 -1 -33 -71 -11 -0 -0 -0 -0 -0 -0 -0 -0 -0
-0 -0 -0 -0 -0 -0 -0 -0 -0 -0 -0 -0 -0 -0 -0 -0 -0 -0 -0 -0 -0 -0 -0 -0 -0 -0 -0 -0 -0 -0 -0 -0 -0 -0 -0 -30 -14 -6 -30 -65 -22 -0 -0 -0 -0 -0 -0 -0 -0
-0 -0 -0 -0 -0 -0 -0 -0 -0 -0 -0 -0 -0 -0 -0 -0 -0 -0 -0 -0 -0 -0 -0 -0 -0 -0 -0 -0 -0 -0 -0 -0 -0 -0 -0 -0 -0 -18 -29 -26 -17 -54 -54 -0 -0 -0 -0 -0 -0
-0 -0 -0 -0 -0 -0 -0 -0 -0 -0 -0 -0 -0 -0 -0 -0 -0 -0 -0 -0 -0 -0 -0 -0 -0 -0 -0 -0 -0 -0 -0 -0 -0 -0 -0 -0 -0 -0 -0 -1 -10 -54 -56 -81 -0 -0 -0 -0 -0
Wind_Speed
20 12 12 15 22 24 31 41 31 27 30 27 21 22 23 21 20 23 18 5 6 13 13 14 14 14 14 14 13 14 16 17 17 15 12 10 8 8 9 9 9 11 13 14 15 15 15 16 17
20 11 11 21 29 29 34 36 37 32 25 25 25 24 25 28 22 19 13 8 8 13 11 12 13 13 13 13 13 13 15 16 17 16 13 10 8 7 7 9 9 10 11 12 13 14 14 14 15
18 13 16 26 34 36 30 28 34 34 31 25 25 27 25 27 24 21 17 7 9 14 12 11 13 13 13 12 13 13 14 15 16 16 14 11 9 7 7 9 10 9 9 10 11 13 13 13 13
16 13 17 39 41 31 30 20 22 34 42 31 27 28 26 27 23 22 14 9 10 12 11 12 13 12 12 12 12 12 14 15 15 15 13 11 10 8 8 7 9 10 10 10 10 11 12 13 13
16 19 35 44 45 36 29 30 26 27 34 41 30 33 27 22 27 21 15 11 13 13 11 12 12 11 11 11 12 12 13 13 14 13 12 11 11 9 8 9 9 9 10 10 10 11 11 10 12
20 21 40 51 46 36 34 35 32 36 32 33 33 38 36 23 22 21 18 15 15 14 12 12 12 11 10 10 12 12 12 12 12 11 10 9 9 7 7 9 9 9 8 9 10 10 11 10 10
23 28 43 44 40 35 35 36 41 37 40 37 31 35 34 29 24 19 16 16 17 16 14 13 11 10 10 9 10 11 11 11 11 10 9 8 7 7 6 6 6 6 7 9 9 9 10 10 10
22 28 40 42 45 45 33 32 33 34 42 34 28 34 33 32 29 20 17 19 18 18 17 15 13 11 10 9 9 10 10 10 10 9 8 7 7 6 5 4 4 4 6 7 7 7 8 9 9
23 31 42 43 47 44 34 36 34 35 36 35 30 26 27 29 24 23 20 22 22 21 19 17 15 12 11 9 9 9 9 9 8 8 8 8 5 5 5 3 4 4 5 5 5 6 7 7 8
27 33 36 31 33 40 41 39 38 38 39 39 39 36 31 29 26 30 27 26 25 25 21 19 17 15 13 12 10 9 9 8 7 7 7 7 6 6 5 4 4 3 2 3 4 5 5 5 5
28 33 32 31 33 35 41 44 38 39 42 33 39 43 37 32 31 31 33 30 26 24 23 21 19 17 15 14 12 10 10 10 9 9 8 8 8 7 6 6 6 4 3 2 1 2 4 4 4
33 28 31 34 35 37 41 41 46 47 44 42 39 38 38 36 32 33 37 37 32 28 26 23 22 21 17 16 14 13 11 12 11 10 10 10 10 9 9 9 9 8 7 4 4 3 3 3 4
30 30 31 35 39 41 41 45 48 51 48 45 40 40 40 36 33 32 33 39 31 31 27 26 23 22 20 18 17 16 14 14 13 12 12 12 11 10 11 11 11 11 8 8 5 3 3 3 4
30 34 36 36 39 39 44 47 45 50 45 46 43 41 39 33 33 31 29 35 37 31 29 27 25 24 22 21 20 18 16 15 14 14 13 13 13 12 12 11 11 11 11 9 7 5 4 4 4
28 34 33 28 31 34 34 45 46 48 51 50 46 40 35 31 28 31 31 34 35 37 29 30 27 24 25 23 22 20 18 17 17 15 15 14 14 14 13 13 12 10 11 9 7 7 6 5 6
28 25 29 31 28 28 31 45 41 38 46 48 45 39 34 30 27 29 31 32 34 36 38 30 28 26 25 26 25 22 20 18 17 17 16 16 15 15 14 13 12 11 11 11 9 7 7 7 7
28 29 29 29 28 28 28 36 31 34 38 42 36 37 36 31 28 28 30 31 33 35 37 36 29 27 25 26 26 24 22 20 18 18 18 17 16 16 15 19 13 12 11 11 11 10 9 8 8
23 25 28 29 28 27 29 32 27 24 26 32 32 31 34 31 29 28 30 30 30 32 34 35 32 27 26 26 26 27 25 22 20 19 19 18 18 17 17 18 14 13 12 13 11 10 11 11 9
23 19 12 16 24 25 24 20 22 19 20 27 28 30 30 27 28 27 26 28 28 28 31 32 33 32 27 27 29 28 27 25 23 21 20 19 19 19 19 19 18 15 14 14 14 11 10 13 10
25 23 20 11 12 22 21 17 17 15 14 20 24 27 25 29 25 27 26 25 25 29 31 31 31 31 29 27 29 30 28 28 25 23 21 21 20 21 22 22 21 19 17 16 15 14 15 18 12
26 24 21 16 4 12 20 16 14 17 14 14 18 23 22 24 26 26 26 24 28 28 29 32 30 31 32 33 30 31 28 27 28 26 24 23 21 21 24 24 22 21 19 18 19 18 16 18 16
29 22 18 13 14 8 13 15 17 17 16 18 20 24 26 25 25 24 25 26 25 29 28 29 29 28 29 30 31 33 32 30 30 28 26 25 23 22 23 24 24 23 21 20 21 21 21 19 18
25 17 16 19 19 19 7 17 18 17 19 20 18 21 25 26 25 24 24 27 26 25 29 28 29 26 28 30 32 30 32 27 27 27 28 29 26 27 25 25 25 25 25 25 23 22 24 22 21
21 22 21 23 24 27 18 6 17 16 19 20 22 21 23 24 25 23 23 24 26 24 24 23 30 29 24 26 27 30 31 29 29 28 29 28 30 30 28 27 28 28 27 27 26 27 27 26 26
29 30 32 33 34 31 21 21 9 9 18 19 21 22 22 22 23 25 25 25 24 25 22 22 29 28 24 25 25 26 25 30 31 30 30 30 31 33 31 29 29 29 29 29 29 29 29 29 29
32 32 34 36 33 28 22 26 20 13 9 19 21 21 21 21 21 25 25 25 27 25 28 24 20 22 21 24 25 25 27 28 28 32 34 35 33 34 33 30 33 32 30 31 30 31 32 32 33
30 34 25 27 26 28 25 22 16 16 13 19 20 20 21 22 22 23 25 25 26 25 27 25 25 22 26 27 27 26 27 28 31 32 35 35 35 35 35 33 31 35 34 31 31 32 34 35 35
30 27 32 29 35 33 27 25 24 17 11 5 21 21 22 23 23 23 24 26 26 26 26 26 28 25 25 25 25 28 29 29 30 31 33 35 37 36 38 36 35 31 36 36 34 35 36 36 37
29 30 31 29 29 31 29 25 17 16 13 7 11 23 24 25 25 24 24 25 26 27 27 28 29 28 29 29 30 29 29 31 32 32 32 34 34 36 40 42 40 40 39 37 40 38 37 38 39
24 26 27 31 31 28 26 23 17 13 11 8 2 17 25 25 25 26 26 24 23 26 27 27 28 31 31 31 30 31 31 31 31 33 34 35 36 36 38 41 44 46 45 38 33 44 42 41 43
Wind_Direction
322 354 6 287 263 258 250 239 244 242 238 242 247 243 244 253 243 252 275 227 205 150 146 141 139 135 129 124 117 112 110 109 108 102 95 91 83 76 73 69 67 65 69 70 71 69 67 68 69
316 339 346 276 259 256 251 243 239 238 244 249 248 249 250 247 255 271 281 239 182 158 155 147 145 140 135 129 123 118 115 114 113 109 102 98 91 83 78 74 71 71 73 71 69 69 68 66 64
319 314 293 266 256 251 254 260 243 237 242 252 249 251 252 251 255 262 271 226 172 163 159 156 148 144 139 134 128 123 119 118 115 113 108 103 98 92 87 84 79 76 72 70 70 69 66 63 58
318 305 297 255 251 257 255 270 256 240 241 252 256 253 257 256 259 263 269 228 186 172 166 157 151 147 143 137 132 128 123 121 118 115 111 107 104 102 97 91 85 80 77 75 71 67 64 62 60
309 293 269 255 253 255 261 261 259 255 246 244 257 249 256 264 261 266 257 221 187 182 187 169 162 154 148 143 137 132 128 125 121 117 114 111 106 104 102 98 92 87 83 79 72 68 62 56 56
294 287 268 256 257 261 263 258 258 254 253 249 250 249 253 270 267 261 250 232 212 192 196 180 172 162 156 149 142 138 134 130 126 124 122 116 113 111 109 104 99 95 88 82 77 69 61 53 53
297 282 269 267 265 264 262 266 255 255 251 250 254 250 253 262 267 260 244 232 216 214 206 196 188 181 166 159 151 146 143 138 132 131 128 126 126 123 122 115 110 105 94 86 78 65 58 56 55
313 289 274 268 263 261 269 268 261 258 251 261 260 250 250 261 261 253 243 233 220 219 217 207 204 193 182 174 162 156 153 147 140 138 140 137 134 136 138 139 131 119 101 89 77 60 53 57 55
321 290 275 272 263 261 272 265 263 264 255 255 255 255 264 273 260 248 239 233 223 224 221 214 209 203 196 192 184 169 165 160 152 148 145 144 164 165 157 176 140 121 105 93 75 58 52 52 49
315 291 282 282 274 265 265 263 264 257 256 251 250 257 271 271 264 247 238 231 224 224 222 215 212 209 204 206 197 196 190 192 186 180 175 206 193 207 207 187 176 161 142 102 75 60 50 34 22
318 292 288 282 278 273 266 261 257 257 249 249 252 255 263 265 262 253 243 236 226 219 224 220 217 216 212 210 212 213 210 209 203 185 199 206 215 206 215 214 224 224 219 248 300 350 343 6 8
312 305 290 283 279 274 267 264 255 250 249 253 261 259 259 261 261 257 244 239 234 226 225 225 222 219 220 222 219 220 214 215 215 204 204 205 215 213 221 229 235 237 247 251 270 297 341 351 8
319 308 295 284 279 274 269 262 256 250 249 253 256 259 255 260 261 260 251 243 235 232 228 227 222 224 226 225 226 224 222 222 223 214 213 214 217 214 224 231 236 242 247 253 257 273 297 328 346
329 310 296 285 279 273 267 264 259 250 249 250 250 254 254 259 260 258 255 245 240 234 227 227 223 223 227 225 231 226 224 226 222 220 216 219 221 224 224 229 233 241 248 251 254 260 273 295 319
337 312 301 296 287 275 271 261 257 255 246 245 244 248 254 255 263 255 255 247 244 241 226 228 227 223 229 230 229 231 225 227 226 228 219 221 225 224 226 228 232 236 244 244 249 256 267 277 290
353 333 307 305 297 281 271 260 263 261 243 239 242 242 247 252 259 258 256 252 247 242 239 227 228 226 227 232 233 230 229 226 225 228 225 223 224 223 226 228 228 231 237 243 244 244 257 267 278
20 335 317 309 306 296 275 264 266 261 243 237 237 237 241 249 255 262 260 255 249 246 243 234 232 227 227 232 233 233 229 228 228 230 230 227 226 225 230 237 230 223 229 238 241 248 252 258 273
41 27 340 310 310 301 285 268 267 265 241 233 234 239 239 246 253 263 260 256 252 249 245 242 236 231 230 234 234 235 231 232 230 230 232 230 231 231 233 237 223 224 231 237 239 241 257 261 267
58 64 65 286 314 312 289 292 276 275 246 235 237 241 242 246 256 262 264 257 253 251 245 243 242 239 236 235 234 232 228 232 232 233 232 230 233 236 236 239 235 231 228 233 238 242 242 261 261
57 58 60 75 78 312 299 291 299 288 275 246 240 240 246 249 258 261 264 260 256 253 249 246 248 246 241 238 237 239 232 236 235 235 233 232 232 236 240 238 238 238 237 237 233 237 250 262 251
52 56 58 61 27 96 306 284 307 287 290 280 255 250 254 258 260 264 264 268 257 255 254 247 250 249 248 246 242 240 236 239 240 238 235 236 233 236 241 240 239 238 240 235 236 240 243 253 251
48 60 50 48 64 45 304 289 296 298 284 282 273 259 255 263 265 269 267 262 266 255 258 253 253 255 253 252 244 239 238 238 244 239 240 240 238 237 239 240 239 240 242 239 237 242 248 253 248
51 37 51 62 70 77 133 323 294 306 289 285 283 274 265 263 268 273 274 267 269 266 264 259 257 257 254 253 253 241 241 244 244 244 245 244 244 243 242 241 241 242 245 246 241 241 246 251 254
38 54 67 68 69 69 77 24 325 305 305 288 279 284 273 270 269 279 278 281 268 270 271 269 261 255 261 260 262 251 250 247 245 247 247 245 249 247 244 241 245 246 247 246 246 246 246 250 257
45 53 56 58 58 62 68 77 116 194 288 292 285 279 284 289 271 269 278 280 274 269 275 275 268 258 261 265 265 263 264 255 253 252 252 252 253 250 248 244 245 247 248 249 249 249 249 249 254
50 55 56 53 55 58 67 65 76 102 178 278 282 287 282 289 287 277 283 286 279 272 265 271 286 264 264 267 267 271 265 265 264 259 257 255 257 257 252 254 251 249 248 250 250 253 252 253 254
50 50 62 61 62 63 64 72 82 84 98 300 295 288 286 287 289 286 279 282 284 278 275 282 285 277 271 274 272 273 272 272 267 268 262 260 261 260 258 262 255 252 252 250 250 253 253 254 256
55 58 53 57 52 56 60 65 63 64 77 146 298 296 290 288 286 288 287 284 291 278 276 281 285 288 285 283 282 275 277 278 277 275 272 268 263 263 260 260 260 258 257 255 253 255 256 255 256
49 51 55 61 58 53 51 60 67 65 70 84 254 294 295 289 287 290 291 288 290 287 288 285 283 286 289 287 280 283 282 282 280 277 278 275 273 271 265 262 260 262 263 259 254 257 256 256 258
54 51 53 51 49 55 55 56 64 67 67 74 129 264 296 296 293 292 290 293 294 290 292 298 292 287 285 287 286 284 282 282 282 282 279 279 276 276 273 270 265 261 260 261 265 257 257 259 259